STARLINK-5440, 54785

Orbit data source: Space-Track

STARLINK-5440, 54785 is a payload satellite owned by SpaceX/Seattle (US) in LEO that was launched on Sat, 17 Dec 2022 UTC via an FALCON 9 launch vehicle from the Air Force Eastern Test Range (AFETR). Payload-class satellites include a variety of spacecraft equipped with specific instruments for various scientific and technological missions. These include communications satellites like Starlink; space stations such as the ISS; scientific satellites like the Hubble; Earth observation satellites from companies like Planet Labs, Umbra, and HawkEye 360; GPS; miniature CubeSats for education and research; and military/defense satellites.

Loading next visibility...
Identifier
54785, 2022-175AD
Orbit
LEO
Country
Flag of USUS
Related business
Manufacturer
SpaceX/Seattle
Mission
Operational Commercial Communications
Bus & Motor
STARLINK, Unknown motor
Mass
305 kg wet, ~290 kg dry
Launch date (UTC)
2022-12-17 (4 years ago)
Launch vehicle
FALCON 9
Launch site
Air Force Eastern Test Range (AFETR)
Object type
Payload
Rocket body
Debris
Shape & HBR
Box + 1 Pan, 10.1 m
Radar Cross Section
13.562 m², Large (>1 m²)

Expand to show TLE details & history
Last TLE update: 2 days ago

TLE from 2 days ago
0 STARLINK-5440
1 54785U 22175AD  26171.43554069  .00000705  00000-0  62383-4 0  9997
2 54785  53.1590 247.6299 0000911  78.0106 282.0987 15.08830364196208
Epoch: 2026-06-20T10:27Z
TLE epoch observation values (Epoch: 2026-06-20T10:27:10.715Z)
Latitude
-0.00007°
Longitude
-177.815°
Altitude
540.532 km
Speed
7.593 km/s
True Right ascension
16h 30m 31s
True Declination
0° 00' 00"
Sunlit
Object was in full shadow at epoch
Visualization orbit readout
Latitude
Unknown
Longitude
Unknown
Altitude
Unknown
Speed
Unknown
Apparent Right ascension
Unknown
Apparent Declination
Unknown
Sunlit
N/A
Visualization observer readout
Local Sidereal Time
21:45:18
Azimuth
Unknown
Elevation
Unknown
Doppler factor
Unknown
Orbital elements
Apogee altitude
540.657 km
Perigee altitude
539.397 km
Semi-major axis
6,918.164 km
Eccentricity
0.00009
Inclination
53.159°
RAAN
247.6299°
Arg. of periapsis
78.0106°
True anomaly
282.08849°
Mean anomaly
282.0987°
Eccentric anomaly
282.0936°
Mean motion
3.77187 °/min
Orbital period
95.44 mins
BSTAR
0.000062383
Loading maneuver chart data...
Computing Atmospheric mass density...
Loading historical data...
Loading historical data...
Loading historical data...
Loading historical data...
Loading historical data...
Loading historical data...
Loading historical data...

Documentation

Showing up to 5 results
|